| time (UTC) | temp F | wind direction | speed MPH | gust MPH | rain 1hr in | rain 24hr in | rain mn in | humidity % | barometer mb |
| 20260510174554 | 86 | 0 | 0.0 | 0.0 | 0.00 | 0.00 | 0.00 | 62 | 1015.7 |
| 20260510173050 | 86 | 0 | 0.0 | 0.0 | 0.00 | 0.00 | 0.00 | 62 | 1015.6 |
| 20260510171552 | 86 | 0 | 0.0 | 0.0 | 0.00 | 0.00 | 0.00 | 62 | 1015.6 |
| 20260510170056 | 85 | 0 | 0.0 | 0.0 | 0.00 | 0.00 | 0.00 | 66 | 1015.6 |
| 20260510164556 | 86 | 0 | 0.0 | 0.0 | 0.00 | 0.00 | 0.00 | 64 | 1015.5 |
| 20260510163055 | 86 | 0 | 0.0 | 0.0 | 0.00 | 0.00 | 0.00 | 64 | 1015.3 |
| 20260510161551 | 85 | 0 | 0.0 | 0.0 | 0.00 | 0.00 | 0.00 | 64 | 1015.4 |
| 20260510160053 | 84 | 0 | 0.0 | 0.0 | 0.00 | 0.00 | 0.00 | 67 | 1015.3 |
| 20260510154554 | 84 | 0 | 0.0 | 0.0 | 0.00 | 0.00 | 0.00 | 67 | 1015.2 |
| 20260510153054 | 83 | 0 | 0.0 | 0.0 | 0.00 | 0.00 | 0.00 | 65 | 1015.0 |
| 20260510151551 | 83 | 0 | 0.0 | 0.0 | 0.00 | 0.00 | 0.00 | 69 | 1014.9 |
| 20260510150057 | 82 | 0 | 0.0 | 0.0 | 0.00 | 0.00 | 0.00 | 70 | 1014.9 |
| 20260510144550 | 81 | 0 | 0.0 | 0.0 | 0.00 | 0.00 | 0.00 | 72 | 1014.7 |
| 20260510143048 | 79 | 0 | 0.0 | 0.0 | 0.00 | 0.00 | 0.00 | 76 | 1014.6 |
| 20260510141557 | 78 | 0 | 0.0 | 0.0 | 0.00 | 0.00 | 0.00 | 77 | 1014.6 |
| 20260510140056 | 77 | 0 | 0.0 | 0.0 | 0.00 | 0.00 | 0.00 | 79 | 1014.5 |
| 20260510134557 | 76 | 0 | 0.0 | 0.0 | 0.00 | 0.00 | 0.00 | 78 | 1014.6 |
| 20260510133058 | 75 | 0 | 0.0 | 0.0 | 0.00 | 0.00 | 0.00 | 79 | 1014.4 |
| 20260510131553 | 75 | 0 | 0.0 | 0.0 | 0.00 | 0.00 | 0.00 | 79 | 1014.2 |
| 20260510130053 | 74 | 0 | 0.0 | 1.0 | 0.00 | 0.00 | 0.00 | 81 | 1014.1 |
| 20260510124559 | 71 | 0 | 0.0 | 0.0 | 0.00 | 0.01 | 0.00 | 83 | 1013.9 |
| 20260510123049 | 68 | 0 | 0.0 | 0.0 | 0.00 | 0.01 | 0.00 | 78 | 1014.0 |
| 20260510121553 | 66 | 0 | 0.0 | 0.0 | 0.00 | 0.01 | 0.00 | 80 | 1013.7 |
| 20260510120048 | 66 | 0 | 0.0 | 0.0 | 0.00 | 0.01 | 0.00 | 81 | 1013.7 |
| 20260510114553 | 66 | 0 | 0.0 | 0.0 | 0.00 | 0.01 | 0.00 | 82 | 1013.7 |
| 20260510113053 | 67 | 0 | 0.0 | 0.0 | 0.00 | 0.01 | 0.00 | 83 | 1013.7 |
| 20260510111554 | 67 | 0 | 0.0 | 0.0 | 0.00 | 0.01 | 0.00 | 83 | 1013.5 |
| 20260510110052 | 67 | 0 | 0.0 | 0.0 | 0.00 | 0.01 | 0.00 | 83 | 1013.7 |
| 20260510104548 | 68 | 0 | 0.0 | 0.0 | 0.00 | 0.01 | 0.00 | 83 | 1013.6 |
| 20260510103058 | 68 | 0 | 0.0 | 0.0 | 0.00 | 0.01 | 0.00 | 83 | 1013.7 |
| 20260510101556 | 68 | 0 | 0.0 | 0.0 | 0.00 | 0.01 | 0.00 | 83 | 1013.7 |
| 20260510100050 | 68 | 0 | 0.0 | 0.0 | 0.00 | 0.01 | 0.00 | 83 | 1013.6 |
| 20260510094553 | 68 | 0 | 0.0 | 0.0 | 0.00 | 0.01 | 0.00 | 83 | 1013.5 |
| 20260510093056 | 69 | 0 | 0.0 | 0.0 | 0.00 | 0.01 | 0.00 | 82 | 1013.4 |
| 20260510091556 | 69 | 0 | 0.0 | 0.0 | 0.00 | 0.01 | 0.00 | 82 | 1013.2 |
| 20260510090055 | 69 | 0 | 0.0 | 0.0 | 0.00 | 0.01 | 0.00 | 82 | 1013.2 |
| 20260510084552 | 69 | 0 | 0.0 | 0.0 | 0.00 | 0.01 | 0.00 | 82 | 1013.2 |
| 20260510083053 | 70 | 0 | 0.0 | 0.0 | 0.00 | 0.01 | 0.00 | 81 | 1013.3 |
| 20260510081559 | 70 | 0 | 0.0 | 0.0 | 0.00 | 0.01 | 0.00 | 81 | 1013.2 |
| 20260510080053 | 71 | 0 | 0.0 | 0.0 | 0.00 | 0.01 | 0.00 | 79 | 1013.1 |
| 20260510074602 | 72 | 0 | 0.0 | 0.0 | 0.00 | 0.01 | 0.00 | 78 | 1013.0 |
| 20260510073103 | 72 | 0 | 0.0 | 0.0 | 0.00 | 0.01 | 0.00 | 77 | 1013.1 |
| 20260510071552 | 73 | 0 | 0.0 | 0.0 | 0.00 | 0.01 | 0.00 | 77 | 1013.3 |
| 20260510070052 | 74 | 0 | 0.0 | 0.0 | 0.00 | 0.01 | 0.00 | 76 | 1013.1 |
| 20260510064555 | 74 | 0 | 0.0 | 0.0 | 0.00 | 0.01 | 0.00 | 75 | 1013.2 |
| 20260510063055 | 75 | 0 | 0.0 | 0.0 | 0.00 | 0.01 | 0.00 | 74 | 1013.3 |
| 20260510061603 | 75 | 0 | 0.0 | 0.0 | 0.00 | 0.01 | 0.00 | 74 | 1013.3 |
| 20260510060057 | 76 | 0 | 0.0 | 0.0 | 0.00 | 0.01 | 0.00 | 74 | 1013.4 |
| 20260510054606 | 76 | 0 | 0.0 | 0.0 | 0.00 | 0.01 | 0.00 | 73 | 1013.3 |
| 20260510053052 | 76 | 0 | 0.0 | 0.0 | 0.00 | 0.01 | 0.00 | 73 | 1013.0 |
| 20260510051550 | 77 | 0 | 0.0 | 0.0 | 0.00 | 0.01 | 0.00 | 72 | 1012.8 |
| 20260510050055 | 78 | 0 | 0.0 | 0.0 | 0.00 | 0.01 | 0.00 | 70 | 1012.9 |
| 20260510044553 | 79 | 0 | 0.0 | 0.0 | 0.00 | 0.01 | 0.01 | 69 | 1012.7 |
| 20260510043051 | 79 | 0 | 0.0 | 0.0 | 0.00 | 0.01 | 0.01 | 67 | 1012.7 |
| 20260510041605 | 79 | 0 | 0.0 | 0.0 | 0.00 | 0.01 | 0.01 | 68 | 1012.6 |
| 20260510040053 | 79 | 0 | 0.0 | 0.0 | 0.00 | 0.01 | 0.01 | 67 | 1012.4 |
| 20260510034555 | 80 | 0 | 0.0 | 0.0 | 0.00 | 0.01 | 0.01 | 67 | 1012.3 |
| 20260510033055 | 80 | 0 | 0.0 | 0.0 | 0.00 | 0.01 | 0.01 | 66 | 1012.2 |
| 20260510031557 | 80 | 0 | 0.0 | 0.0 | 0.00 | 0.01 | 0.01 | 66 | 1012.1 |
| 20260510030053 | 81 | 0 | 0.0 | 0.0 | 0.00 | 0.01 | 0.01 | 65 | 1011.9 |
| 20260510024609 | 81 | 0 | 0.0 | 0.0 | 0.00 | 0.01 | 0.01 | 65 | 1011.8 |
| 20260510023058 | 82 | 0 | 0.0 | 0.0 | 0.00 | 0.01 | 0.01 | 64 | 1011.6 |
| 20260510021558 | 82 | 0 | 0.0 | 0.0 | 0.00 | 0.01 | 0.01 | 64 | 1011.4 |
| 20260510020056 | 82 | 0 | 0.0 | 0.0 | 0.00 | 0.01 | 0.01 | 63 | 1011.3 |
| 20260510014557 | 83 | 0 | 0.0 | 0.0 | 0.00 | 0.01 | 0.01 | 62 | 1010.9 |
| 20260510013101 | 84 | 0 | 0.0 | 0.0 | 0.00 | 0.01 | 0.01 | 60 | 1010.7 |
| 20260510011550 | 84 | 0 | 0.0 | 0.0 | 0.00 | 0.01 | 0.01 | 59 | 1010.4 |
| 20260510010053 | 85 | 0 | 0.0 | 0.0 | 0.00 | 0.01 | 0.01 | 58 | 1010.2 |
| 20260510004555 | 86 | 0 | 0.0 | 0.0 | 0.00 | 0.01 | 0.01 | 56 | 1010.0 |
| 20260510003056 | 88 | 0 | 0.0 | 0.0 | 0.00 | 0.01 | 0.01 | 55 | 1009.8 |
| 20260510001552 | 89 | 0 | 0.0 | 0.0 | 0.00 | 0.01 | 0.01 | 53 | 1009.9 |
| 20260510000049 | 91 | 0 | 0.0 | 0.0 | 0.00 | 0.01 | 0.01 | 51 | 1009.9 |
| 20260509234548 | 92 | 0 | 0.0 | 0.0 | 0.00 | 0.01 | 0.01 | 49 | 1010.0 |
| 20260509233053 | 92 | 0 | 0.0 | 0.0 | 0.00 | 0.01 | 0.01 | 49 | 1009.9 |
| 20260509231604 | 93 | 0 | 0.0 | 0.0 | 0.00 | 0.01 | 0.01 | 49 | 1009.9 |
| 20260509230055 | 93 | 0 | 0.0 | 0.0 | 0.00 | 0.01 | 0.01 | 45 | 1009.7 |
| 20260509224556 | 93 | 0 | 0.0 | 0.0 | 0.00 | 0.01 | 0.01 | 47 | 1009.8 |
| 20260509223104 | 93 | 0 | 0.0 | 0.0 | 0.00 | 0.01 | 0.01 | 44 | 1009.8 |
| 20260509221556 | 93 | 0 | 0.0 | 0.0 | 0.00 | 0.01 | 0.01 | 44 | 1009.9 |
| 20260509220058 | 93 | 0 | 0.0 | 0.0 | 0.00 | 0.01 | 0.01 | 46 | 1009.9 |
| 20260509214552 | 93 | 0 | 0.0 | 0.0 | 0.00 | 0.01 | 0.01 | 46 | 1009.8 |
| 20260509213055 | 92 | 0 | 0.0 | 0.0 | 0.00 | 0.01 | 0.01 | 48 | 1010.0 |
| 20260509211558 | 93 | 0 | 0.0 | 0.0 | 0.00 | 0.01 | 0.01 | 44 | 1010.3 |
| 20260509210105 | 93 | 0 | 0.0 | 0.0 | 0.00 | 0.01 | 0.01 | 46 | 1010.5 |
| 20260509204553 | 92 | 0 | 0.0 | 0.0 | 0.00 | 0.01 | 0.01 | 51 | 1010.6 |
| 20260509203054 | 92 | 0 | 0.0 | 2.0 | 0.00 | 0.01 | 0.01 | 49 | 1010.9 |
| 20260509201549 | 92 | 0 | 0.0 | 0.0 | 0.00 | 0.01 | 0.01 | 49 | 1011.3 |
| 20260509200054 | 91 | 0 | 0.0 | 0.0 | 0.00 | 0.01 | 0.01 | 53 | 1011.5 |
| 20260509194553 | 90 | 0 | 0.0 | 0.0 | 0.00 | 0.01 | 0.01 | 55 | 1011.9 |
| 20260509193052 | 90 | 0 | 0.0 | 0.0 | 0.00 | 0.01 | 0.01 | 56 | 1012.0 |
| 20260509191550 | 91 | 0 | 0.0 | 3.0 | 0.00 | 0.01 | 0.01 | 54 | 1012.1 |
| 20260509190050 | 90 | 0 | 0.0 | 0.0 | 0.00 | 0.01 | 0.01 | 59 | 1012.1 |
| 20260509184549 | 89 | 0 | 0.0 | 6.0 | 0.00 | 0.01 | 0.01 | 59 | 1012.3 |
| 20260509183049 | 89 | 0 | 0.0 | 5.0 | 0.00 | 0.01 | 0.01 | 59 | 1012.4 |
| 20260509181552 | 88 | 0 | 0.0 | 7.0 | 0.00 | 0.01 | 0.01 | 59 | 1012.7 |
| 20260509180050 | 87 | 0 | 0.0 | 0.0 | 0.00 | 0.01 | 0.01 | 60 | 1012.9 |